Regional Weather Roundup
Issued by NWS

Home | Current Version | Previous Version | Graphics & Text | Print | Product List | Glossary On
Versions: 1 2 3 4 5 6 7 8 9 10 11 12 13 14 15 16 17 18 19 20 21 22 23 24 25 26 27 28 29 30 31 32 33 34 35 36 37 38 39 40 41 42 43 44 45 46 47 48 49 50
000
ASUS43 KLOT 222206
RWRIL

ILLINOIS REGIONAL WEATHER ROUNDUP
NATIONAL WEATHER SERVICE CHICAGO/ROMEOVILLE IL
500 PM CDT TUE APR 22 2014

NOTE: "FAIR" INDICATES FEW OR NO CLOUDS BELOW 12,000 FEET WITH NO
SIGNIFICANT WEATHER AND/OR OBSTRUCTIONS TO VISIBILITY.

* THESE STATIONS ARE NOT UNDER NWS QUALITY CONTROL. THEY ALSO MAY NOT
  REPORT WEATHER SUCH AS PRECIPITATION OR FOG.

ILZ001-002-007-009-015-016-024-222300-
NORTHWEST ILLINOIS

CITY           SKY/WX    TMP DP  RH WIND       PRES   REMARKS
MOLINE         MOSUNNY   64  27  24 N13       29.99F
STERLING*      PTSUNNY   61  32  33 N14       29.98S
SAVANNA*       CLOUDY    62  26  25 NW9G17    29.99S
$$

ILZ003-004-008-010-011-017-018-222300-
NORTH CENTRAL ILLINOIS

CITY           SKY/WX    TMP DP  RH WIND       PRES   REMARKS
ROCKFORD       PTSUNNY   60  25  26 N15G23    29.99S
FREEPORT*      PTSUNNY   56  23  27 NW14      30.01S
ROCHELLE*      MOSUNNY   59  26  29 NW15G21   29.98R
DE KALB*       PTSUNNY   58  26  28 N17       29.97S
PERU*          MOSUNNY   60  31  33 NW17G23   29.97S
$$

ILZ005-006-012>014-019>023-222300-
NORTHEAST ILLINOIS

CITY           SKY/WX    TMP DP  RH WIND       PRES   REMARKS
CHICAGO-OHARE  MOSUNNY   52  30  43 E13       29.97R
CHICAGO-MIDWAY MOSUNNY   48  32  53 NE13      29.99R
AURORA         PTSUNNY   59  27  29 NW17G25   29.96S
LANSING*       SUNNY     47  31  52 NE12G20   29.98R
JOLIET*        MOSUNNY   59  28  30 NW8G18    29.96S
WAUKEGAN       SUNNY     44  30  57 E12       29.98R
DUPAGE AIRPORT MOSUNNY   60  28  29 N14G23    29.95S
KANKAKEE*      MOSUNNY   60  34  37 NW13      29.95S
WHEELING       SUNNY     48  31  51 NE13      29.99R
MORRIS*        PTSUNNY   62  23  22 NW13G22   29.95F
ROMEOVILLE*    MOSUNNY   59  28  30 N17G26    29.95S
NORTHERLY ISL    N/A     43  33  68 E8          N/A
$$

LMZ740>746-222300-
SOUTHERN LAKE MICHIGAN

STATION/POSITION SKY/WX   TEMP    WIND        PRES    VSBY  WAVE
                          AIR SEA DIR/SP/G                  HT/PER
                          (F)     (DEG/KT/KT) (MB)    (MI)  (FT/S)
WAUKEGAN HARBOR            41     110/  4/  6 1016.9S
HARRISON CRIB              40      70/  8/ 11   N/A
BURNHAM HARBOR             44      50/  9/ 12   N/A
CALUMET HARBOR             41      50/ 12/ 15 1016.4S
MICHIGAN CITY              41      20/ 16/ 19   N/A
$$

ILZ025>027-034>036-040-047-049-050-058-095>099-222300-
WEST-CENTRAL ILLINOIS

CITY           SKY/WX    TMP DP  RH WIND       PRES   REMARKS
QUINCY         SUNNY     64  33  31 N12       30.01F
GALESBURG*     SUNNY     63  32  32 NW9G18    30.00S
MACOMB*        SUNNY     64  28  25 NW18      30.02F
JACKSONVILLE*  SUNNY     65  30  26 NW14      30.01S
PITTSFIELD*    SUNNY     66  31  27 N10       30.02S
$$

ILZ028>032-037-038-041>044-048-051>054-059>061-222300-
CENTRAL ILLINOIS

CITY           SKY/WX    TMP DP  RH WIND       PRES   REMARKS
PONTIAC        MOSUNNY   63  32  31 NW15G24   29.96S
BLOOMINGTON    SUNNY     61  29  29 NW16      29.98R
DECATUR        SUNNY     65  30  27 NW13G23   29.97R
PEORIA         SUNNY     65  29  25 NW10G21   29.98S
LACON*         SUNNY     63  29  27 N13       29.97S
LINCOLN*       SUNNY     67  30  25 NW8G18    29.97R
SPRINGFIELD    SUNNY     67  29  24 N9G23     29.99R
TAYLORVILLE    SUNNY     64  32  29 N18       29.98R
$$

ILZ033-039-045-046-055>057-062-063-222300-
EAST-CENTRAL ILLINOIS

CITY           SKY/WX    TMP DP  RH WIND       PRES   REMARKS
CHAMPAIGN      SUNNY     65  32  29 NW14G24   29.95S
RANTOUL*       MOSUNNY   64  33  31 NW9       29.96S
MATTOON        SUNNY     66  31  27 N18G25    29.94S
PARIS*         SUNNY     64  35  33 NW14G20   29.94S
$$

ILZ079-100>102-222300-
SOUTHWEST ILLINOIS

CITY           SKY/WX    TMP DP  RH WIND       PRES   REMARKS
ALTON          SUNNY     68  27  21 NW10G18   29.99S
BELLEVILLE     SUNNY     68  38  33 N8G17     29.98S
CAHOKIA*       SUNNY     69  39  33 NW15      29.99S
SPARTA*        SUNNY     64  37  36 NW14      29.99S
$$

ILZ064>066-069>071-074>076-080>082-084>086-088>090-092>094-222300-
SOUTH-CENTRAL ILLINOIS

CITY           SKY/WX    TMP DP  RH WIND       PRES   REMARKS
CARBONDALE     SUNNY     68  40  35 N14       29.97R
CAIRO*         SUNNY     76  37  24 N14       29.93R
MARION         SUNNY     68  41  37 N16       29.97R
MT. VERNON     SUNNY    N/A N/A N/A NW7       29.96S
CENTRALIA*       N/A     67  36  32 CALM      29.97R
SALEM*         SUNNY     67  42  39 N13       29.96S
METROPOLIS*    SUNNY     71  29  20 NW10      29.92R
$$

ILZ067-068-072-073-078-083-087-091-222300-
SOUTHEAST ILLINOIS

CITY           SKY/WX    TMP DP  RH WIND       PRES   REMARKS
FAIRFIELD*     SUNNY     68  37  32 NW7       29.94S
HARRISBURG*    SUNNY     69  37  31 NW12G20   29.96R
ROBINSON*      SUNNY     68  37  32 N15G22    29.94S
CARMI*         SUNNY     70  40  34 NW10G21   29.93S
$$

ABBREVIATIONS USED IN REMARKS
   TC - TEMPERATURE IN CELSIUS
  WCI - WIND CHILL INDEX
   HX - HEAT INDEX
  VSB - VISIBILITY
$$




USA.gov is the U.S. government's official web portal to all federal, state and local government web resources and services.